Location: Grand Moustoir
(47.8355°N, 3.3120°W)
Time: 19:57:02
(UTC+00:00)

CZ-2C R/B - Pass Details

Date: 20 January 2020
Orbit: 669 x 783 km, 98.1° (Epoch: 16 February)

Event Time Altitude Azimuth Distance (km) Brightness Sun altitude
Rises 05:49:28 0° 3° (N) 3,163 5.7 -20.5°
Reaches altitude 10° 05:52:03 10° 351° (N) 2,256 4.8 -20.1°
Enters shadow 05:53:22 16° 340° (NNW) 1,869 4.2 -19.9°
